Zurück zum Katalog

COSMOS 252 DEB *

AktivLEO
NORAD 3686·DEBRIS·🇷🇺 Russia

Gestartet Nov 1, 1968 von Baikonur Cosmodrome

Loading…

Nächste Überflüge (nächste 24 Stunden)

TLE

AktuellSource: Space-Track

Epoche: Sep 14, 2026, 12:38 UTC

1 03686U 68097AD  26257.52643919  .00000606  00000-0  64209-3 0  9990
2 03686  62.2606 232.7978 0624682 191.3443 167.2912 13.18198727708547

Verfolge COSMOS 252 DEB * in Echtzeit mit AllMySat

Download on the App Store